Temp
-12 -12 -12 -12 -13 -16 -19 -19 -19 -20 -20 -20 -19 -19 -17 -16 -15 -15 -14 -14 -13 -12 -12 -12 -13 -12 -12 -12 -12 -12 -11 -12 -11 -11 -10 -11 -10 -11 -10 -10 -11 -11 -11 -11
-13 -13 -13 -15 -18 -20 -20 -21 -20 -21 -21 -21 -20 -20 -19 -18 -18 -17 -16 -15 -14 -12 -12 -12 -12 -13 -13 -12 -12 -12 -11 -11 -12 -11 -11 -11 -11 -11 -11 -11 -11 -12 -11 -10
-13 -14 -15 -18 -20 -21 -21 -21 -21 -21 -20 -20 -21 -20 -20 -19 -18 -18 -17 -17 -16 -15 -13 -13 -13 -13 -13 -13 -12 -12 -12 -11 -12 -12 -12 -11 -11 -11 -11 -11 -11 -11 -11 -10
-15 -16 -18 -21 -21 -21 -21 -22 -22 -21 -23 -21 -23 -21 -20 -20 -20 -20 -19 -19 -18 -18 -16 -15 -15 -16 -14 -13 -13 -12 -12 -12 -11 -12 -12 -12 -11 -11 -11 -11 -11 -11 -11 -11
-17 -17 -20 -21 -21 -22 -23 -24 -24 -24 -24 -24 -23 -24 -20 -22 -23 -23 -22 -20 -19 -18 -17 -15 -14 -15 -16 -15 -14 -14 -13 -12 -11 -12 -12 -12 -12 -11 -11 -11 -11 -11 -11 -11
-18 -20 -21 -21 -22 -24 -24 -25 -24 -25 -25 -23 -24 -23 -22 -23 -21 -21 -22 -22 -21 -19 -18 -16 -15 -14 -15 -14 -15 -15 -13 -13 -12 -11 -11 -12 -12 -12 -11 -11 -11 -11 -11 -11
-20 -21 -21 -22 -23 -24 -25 -25 -24 -24 -24 -24 -24 -23 -23 -22 -22 -22 -22 -21 -21 -22 -21 -18 -16 -15 -15 -15 -15 -15 -14 -13 -12 -12 -11 -11 -12 -12 -12 -11 -11 -11 -11 -11
-20 -22 -22 -23 -24 -24 -26 -26 -25 -25 -24 -24 -24 -24 -23 -22 -22 -23 -22 -21 -22 -21 -21 -21 -19 -16 -15 -15 -16 -15 -14 -14 -14 -12 -12 -11 -11 -12 -12 -11 -11 -11 -11 -11
-21 -22 -23 -24 -24 -25 -25 -26 -26 -26 -25 -24 -24 -24 -23 -23 -23 -23 -22 -22 -21 -21 -21 -21 -21 -20 -17 -16 -16 -17 -15 -14 -13 -13 -12 -11 -11 -11 -10 -10 -10 -10 -11 -12
-21 -21 -23 -24 -25 -25 -25 -25 -25 -26 -25 -24 -24 -24 -24 -24 -23 -23 -23 -23 -23 -21 -21 -21 -21 -21 -20 -19 -17 -16 -16 -15 -13 -12 -11 -11 -11 -11 -11 -11 -10 -11 -11 -12
-21 -22 -22 -24 -25 -24 -26 -25 -25 -25 -26 -25 -24 -24 -25 -25 -24 -24 -23 -22 -22 -22 -21 -21 -21 -21 -20 -20 -20 -17 -16 -15 -13 -12 -12 -11 -12 -12 -12 -12 -11 -11 -11 -12
-22 -22 -22 -23 -24 -25 -25 -26 -26 -26 -25 -25 -25 -23 -24 -25 -25 -24 -24 -23 -24 -23 -22 -21 -20 -20 -20 -21 -20 -20 -17 -16 -14 -13 -12 -11 -11 -12 -13 -13 -12 -11 -11 -11
-22 -22 -22 -23 -25 -25 -25 -26 -26 -26 -25 -25 -25 -23 -24 -25 -26 -25 -24 -24 -24 -24 -22 -21 -20 -20 -20 -20 -20 -19 -18 -16 -15 -13 -13 -12 -13 -11 -13 -13 -13 -12 -12 -11
-22 -23 -23 -23 -24 -25 -26 -27 -28 -27 -26 -25 -25 -24 -25 -26 -26 -25 -25 -25 -24 -24 -23 -21 -21 -21 -20 -19 -20 -19 -19 -17 -16 -14 -14 -14 -13 -12 -13 -13 -13 -12 -12 -11
-22 -23 -23 -23 -25 -25 -27 -27 -28 -28 -28 -26 -25 -25 -25 -26 -26 -25 -25 -25 -24 -24 -23 -22 -22 -22 -22 -20 -19 -18 -19 -18 -18 -16 -15 -15 -14 -14 -13 -13 -13 -12 -12 -11
-23 -23 -23 -24 -25 -26 -27 -28 -28 -28 -27 -26 -26 -25 -25 -25 -25 -25 -25 -25 -25 -24 -23 -23 -22 -22 -21 -21 -20 -19 -18 -19 -18 -17 -17 -16 -15 -14 -12 -13 -13 -13 -12 -11
-23 -23 -23 -24 -25 -26 -27 -27 -27 -27 -27 -27 -26 -26 -26 -26 -26 -26 -25 -25 -25 -25 -24 -23 -22 -22 -21 -21 -20 -19 -19 -19 -18 -18 -17 -16 -15 -14 -14 -14 -13 -13 -13 -12
-23 -23 -24 -24 -25 -27 -27 -27 -27 -27 -27 -27 -27 -26 -26 -26 -26 -26 -25 -25 -25 -25 -25 -24 -23 -22 -21 -21 -21 -20 -19 -19 -18 -18 -17 -17 -16 -15 -14 -14 -14 -13 -13 -13
-23 -24 -24 -24 -25 -27 -27 -28 -27 -27 -27 -27 -27 -27 -27 -27 -26 -26 -26 -26 -25 -25 -25 -24 -24 -23 -22 -22 -21 -21 -20 -19 -19 -18 -18 -17 -17 -16 -14 -14 -14 -14 -14 -13
-22 -23 -24 -25 -25 -26 -26 -27 -27 -27 -27 -27 -27 -27 -27 -27 -27 -26 -26 -26 -26 -25 -25 -25 -24 -23 -23 -22 -22 -21 -21 -20 -19 -19 -18 -18 -17 -17 -16 -15 -14 -14 -14 -13
-23 -24 -24 -25 -25 -26 -28 -28 -28 -28 -28 -27 -28 -28 -27 -27 -27 -27 -26 -26 -26 -26 -25 -25 -24 -24 -23 -23 -22 -21 -21 -20 -20 -20 -19 -18 -18 -17 -16 -15 -14 -14 -14 -14
-23 -24 -25 -24 -25 -26 -27 -28 -28 -28 -28 -28 -28 -27 -27 -28 -27 -27 -27 -26 -26 -26 -26 -25 -25 -25 -24 -23 -23 -22 -21 -20 -20 -20 -19 -18 -18 -18 -17 -15 -15 -14 -14 -14
-23 -25 -24 -24 -25 -26 -27 -28 -28 -28 -28 -28 -28 -28 -28 -28 -28 -27 -28 -28 -27 -27 -26 -26 -25 -25 -25 -24 -24 -23 -22 -21 -20 -20 -19 -18 -19 -18 -17 -16 -15 -15 -14 -14
-23 -25 -23 -24 -25 -26 -26 -28 -28 -28 -28 -28 -28 -29 -29 -29 -28 -28 -28 -28 -28 -27 -27 -26 -26 -25 -25 -25 -25 -24 -23 -22 -21 -20 -20 -20 -20 -18 -18 -18 -16 -16 -15 -14
-24 -23 -24 -24 -25 -26 -26 -27 -28 -28 -28 -28 -28 -28 -29 -29 -29 -29 -28 -28 -28 -28 -27 -27 -26 -26 -26 -25 -25 -25 -24 -23 -22 -22 -21 -20 -20 -20 -19 -18 -17 -16 -15 -15
-24 -23 -24 -24 -25 -26 -26 -27 -27 -28 -28 -28 -29 -29 -28 -28 -29 -29 -29 -29 -28 -28 -28 -27 -27 -26 -26 -25 -25 -25 -25 -24 -23 -23 -22 -21 -20 -20 -19 -18 -18 -17 -16 -16
Height
5742 5737 5729 5720 5711 5703 5695 5692 5691 5696 5699 5694 5700 5700 5713 5719 5726 5731 5735 5739 5747 5757 5767 5769 5780 5788 5791 5799 5804 5807 5813 5826 5830 5831 5839 5844 5850 5854 5857 5861 5863 5864 5868 5871
5730 5722 5712 5700 5693 5688 5685 5682 5682 5679 5682 5678 5678 5681 5693 5702 5705 5709 5719 5725 5732 5743 5752 5761 5770 5777 5782 5786 5792 5791 5798 5810 5820 5824 5827 5836 5841 5845 5850 5851 5855 5857 5861 5865
5716 5707 5697 5688 5684 5679 5674 5670 5671 5667 5668 5668 5665 5666 5678 5686 5691 5697 5704 5711 5716 5725 5735 5745 5754 5763 5768 5774 5779 5777 5781 5793 5806 5816 5819 5822 5829 5832 5835 5840 5846 5852 5855 5857
5705 5695 5685 5680 5675 5668 5665 5662 5657 5657 5655 5657 5658 5656 5668 5675 5678 5680 5684 5687 5693 5697 5703 5709 5726 5739 5749 5760 5764 5762 5764 5775 5789 5799 5807 5811 5819 5826 5832 5838 5843 5846 5849 5850
5694 5683 5676 5671 5666 5661 5655 5650 5650 5648 5648 5647 5652 5647 5661 5658 5654 5657 5658 5661 5667 5674 5684 5692 5703 5718 5728 5733 5740 5745 5749 5758 5769 5781 5793 5801 5806 5815 5821 5827 5830 5836 5842 5844
5683 5673 5667 5662 5658 5652 5645 5645 5645 5644 5644 5646 5645 5645 5646 5645 5646 5649 5648 5650 5651 5655 5665 5679 5689 5703 5715 5722 5729 5737 5739 5745 5757 5767 5778 5788 5796 5802 5809 5817 5821 5827 5834 5838
5680 5668 5660 5656 5649 5645 5643 5642 5641 5642 5640 5639 5640 5642 5642 5640 5639 5641 5642 5644 5648 5649 5654 5662 5672 5682 5696 5708 5716 5721 5727 5731 5738 5754 5765 5776 5787 5791 5797 5804 5811 5816 5822 5828
5673 5668 5653 5648 5642 5642 5641 5639 5637 5634 5635 5634 5637 5638 5639 5633 5630 5634 5635 5636 5635 5642 5646 5647 5654 5664 5674 5687 5700 5706 5715 5721 5723 5738 5747 5763 5772 5779 5785 5792 5798 5805 5811 5819
5665 5662 5651 5641 5640 5637 5635 5635 5634 5630 5630 5628 5632 5631 5630 5624 5623 5625 5625 5625 5625 5628 5632 5638 5643 5648 5654 5664 5678 5689 5696 5710 5712 5721 5739 5748 5760 5767 5774 5782 5786 5794 5801 5807
5659 5655 5647 5640 5633 5631 5627 5627 5628 5626 5624 5623 5624 5622 5619 5617 5616 5617 5619 5619 5619 5621 5625 5628 5634 5638 5642 5644 5651 5665 5684 5696 5702 5708 5723 5718 5735 5750 5764 5770 5773 5781 5790 5795
5654 5648 5645 5634 5626 5623 5621 5617 5619 5620 5619 5617 5613 5617 5614 5611 5611 5612 5613 5613 5613 5614 5615 5620 5624 5628 5629 5632 5637 5649 5669 5679 5690 5691 5697 5708 5712 5720 5735 5748 5759 5766 5776 5783
5651 5642 5636 5629 5620 5616 5615 5612 5612 5612 5612 5611 5609 5609 5609 5611 5605 5604 5606 5607 5608 5608 5609 5609 5612 5615 5615 5617 5624 5635 5649 5661 5672 5676 5674 5681 5688 5708 5714 5726 5740 5751 5761 5770
5646 5637 5628 5626 5618 5612 5608 5606 5603 5602 5601 5603 5600 5601 5607 5606 5601 5599 5603 5605 5604 5605 5602 5601 5601 5602 5604 5604 5609 5618 5628 5642 5651 5663 5659 5670 5691 5677 5697 5711 5725 5738 5745 5755
5638 5634 5624 5618 5612 5606 5603 5600 5597 5593 5591 5592 5593 5594 5602 5600 5595 5595 5598 5598 5598 5597 5595 5594 5592 5591 5591 5593 5597 5605 5611 5624 5633 5642 5645 5652 5670 5684 5680 5690 5710 5725 5731 5735
5636 5630 5622 5613 5607 5601 5596 5593 5590 5586 5584 5582 5588 5589 5594 5591 5590 5590 5589 5590 5591 5589 5586 5585 5584 5582 5580 5581 5586 5594 5599 5604 5614 5620 5628 5639 5653 5663 5674 5687 5695 5703 5711 5720
5631 5626 5620 5610 5603 5597 5592 5588 5586 5584 5581 5581 5580 5581 5581 5585 5585 5584 5584 5584 5583 5582 5579 5579 5578 5576 5572 5573 5577 5582 5587 5591 5595 5603 5611 5624 5637 5652 5664 5672 5683 5690 5697 5701
5625 5620 5616 5609 5601 5596 5593 5589 5587 5585 5583 5581 5580 5579 5580 5581 5580 5579 5578 5578 5577 5576 5574 5572 5571 5569 5568 5568 5568 5569 5575 5581 5585 5589 5596 5609 5620 5633 5641 5650 5662 5678 5687 5694
5622 5615 5610 5608 5601 5595 5592 5589 5586 5584 5582 5581 5580 5578 5578 5576 5576 5574 5573 5574 5573 5571 5568 5566 5564 5561 5562 5559 5560 5560 5564 5570 5577 5580 5585 5592 5604 5615 5624 5637 5649 5661 5671 5677
5618 5613 5608 5600 5595 5593 5590 5588 5586 5583 5582 5580 5577 5576 5576 5574 5571 5571 5570 5569 5568 5566 5563 5562 5559 5557 5555 5553 5553 5552 5555 5559 5565 5569 5574 5581 5590 5600 5610 5623 5635 5643 5653 5664
5612 5605 5601 5593 5590 5589 5587 5585 5582 5581 5578 5575 5573 5571 5570 5570 5568 5566 5565 5564 5562 5561 5558 5556 5555 5553 5550 5548 5546 5545 5546 5549 5554 5558 5562 5569 5576 5585 5596 5607 5617 5628 5636 5646
5605 5600 5594 5589 5585 5585 5580 5580 5576 5575 5575 5570 5569 5568 5565 5564 5563 5561 5559 5558 5558 5555 5554 5552 5550 5548 5546 5544 5541 5540 5540 5543 5546 5549 5552 5556 5562 5570 5579 5588 5598 5608 5620 5628
5600 5594 5592 5587 5582 5580 5576 5574 5571 5569 5567 5565 5563 5561 5559 5556 5556 5554 5553 5551 5550 5550 5549 5547 5546 5544 5541 5539 5536 5534 5534 5535 5538 5541 5543 5547 5550 5555 5563 5572 5581 5589 5600 5610
5595 5588 5585 5583 5578 5574 5571 5566 5564 5562 5561 5557 5555 5553 5550 5547 5546 5545 5544 5543 5542 5542 5542 5541 5541 5538 5536 5533 5531 5529 5528 5528 5530 5533 5532 5532 5538 5543 5549 5556 5564 5573 5582 5592
5588 5581 5578 5577 5575 5568 5563 5561 5559 5556 5554 5552 5549 5547 5544 5541 5538 5537 5536 5535 5534 5535 5534 5534 5534 5533 5531 5529 5526 5524 5522 5522 5522 5524 5526 5527 5529 5531 5536 5542 5549 5556 5565 5574
5578 5574 5571 5570 5566 5562 5558 5553 5552 5549 5547 5547 5544 5541 5538 5536 5532 5529 5528 5526 5525 5526 5526 5526 5526 5526 5525 5524 5522 5519 5518 5517 5516 5515 5516 5516 5518 5519 5523 5527 5534 5541 5549 5557
5566 5566 5564 5563 5559 5554 5553 5547 5543 5542 5542 5540 5537 5535 5532 5530 5527 5523 5520 5518 5516 5515 5515 5516 5516 5517 5517 5514 5513 5513 5512 5512 5512 5510 5509 5508 5509 5510 5512 5512 5519 5525 5532 5538
Wind_Speed
42 46 52 55 57 57 53 50 50 46 47 52 55 59 66 70 72 71 74 74 73 71 65 62 55 58 59 56 57 59 57 54 52 52 47 43 38 34 39 37 38 36 31 26
45 50 52 53 47 44 41 40 40 40 37 45 53 57 59 63 64 68 70 74 76 73 70 68 62 55 57 64 59 63 63 58 55 55 54 47 43 39 36 44 43 40 35 30
48 51 51 45 38 38 40 39 38 40 37 37 40 44 52 61 67 66 65 65 68 72 72 70 66 62 58 59 67 67 65 63 58 56 56 54 49 48 45 44 46 41 37 35
48 46 42 34 35 38 41 41 39 38 34 35 31 39 30 31 45 59 65 67 69 70 74 74 65 61 61 57 63 71 70 68 64 60 60 60 53 48 43 37 43 43 39 39
47 46 37 33 36 35 30 30 29 27 23 22 9 25 21 27 33 32 37 52 67 78 81 81 80 69 63 59 59 67 75 73 72 68 63 62 58 51 47 42 43 47 42 41
44 41 37 36 35 29 29 26 23 13 14 7 10 12 10 20 32 33 33 38 53 65 75 84 84 80 72 71 65 61 72 77 74 71 68 64 61 57 52 46 43 46 44 42
33 35 36 34 31 27 21 24 15 14 12 15 12 14 16 22 23 24 32 37 38 44 47 74 88 87 80 71 73 68 67 73 78 71 68 66 63 62 58 52 46 45 44 43
37 26 37 32 31 25 19 25 21 26 22 17 12 15 14 15 27 28 33 37 39 45 43 46 64 87 90 83 70 76 72 75 75 76 68 67 68 66 64 58 52 47 44 42
37 25 27 33 26 21 19 25 31 27 25 28 16 15 25 16 10 7 4 19 26 45 45 47 47 57 71 83 80 72 77 79 78 78 73 66 69 70 67 62 58 52 47 43
41 32 29 26 24 23 23 23 19 20 23 26 26 24 23 22 20 13 11 11 11 31 38 47 48 48 53 62 74 74 74 75 83 84 84 61 72 72 71 67 64 58 50 44
41 35 30 29 23 24 24 26 23 21 23 28 33 33 29 30 29 18 15 18 12 18 29 42 45 49 53 54 60 69 72 79 80 88 88 83 82 77 80 77 70 63 55 48
39 38 33 30 27 23 26 30 28 28 30 32 35 34 33 29 34 36 26 23 20 20 22 27 45 47 49 57 57 62 69 72 82 85 98 96 69 83 81 82 76 69 60 55
37 38 38 33 27 21 23 28 33 34 35 33 40 30 32 34 37 41 36 31 28 24 25 27 28 32 46 55 55 56 61 73 81 86 92 95 99 65 80 81 77 72 66 60
40 37 38 37 33 24 15 25 33 38 39 38 37 29 22 24 32 36 35 33 34 26 24 27 33 36 40 48 52 51 59 66 78 87 93 88 85 75 85 80 72 74 69 66
37 36 35 37 29 25 22 14 21 37 44 43 33 33 26 30 30 18 20 23 27 25 21 27 27 24 32 41 47 44 56 64 74 84 91 87 85 86 74 70 73 74 78 77
35 34 33 35 28 23 20 12 10 11 10 12 16 18 20 17 10 16 21 22 18 22 21 22 19 23 16 30 38 41 48 62 75 84 86 86 84 82 73 89 71 76 79 69
35 34 33 29 27 17 10 2 9 15 10 15 12 7 6 14 20 18 20 23 16 17 17 18 20 20 23 27 44 38 46 54 71 81 83 81 83 81 91 72 76 78 77 76
32 33 34 27 22 11 12 1 11 12 14 2 5 7 5 18 21 20 22 24 14 17 18 18 20 19 25 21 23 38 40 50 61 75 81 76 76 81 79 81 77 79 79 78
31 30 30 28 24 13 6 7 7 15 18 18 18 21 21 18 23 27 25 27 27 22 22 19 20 20 20 24 22 26 37 48 52 67 78 77 72 78 80 78 80 81 80 80
34 32 32 28 28 19 15 14 20 21 17 17 21 25 26 26 27 30 31 27 21 21 22 23 23 21 21 23 24 18 34 35 45 55 69 76 75 73 76 79 83 82 82 83
32 32 30 29 30 22 16 17 22 23 20 26 28 17 15 23 29 31 36 34 26 18 21 23 26 25 24 20 21 19 24 45 35 42 55 69 72 76 76 76 83 81 82 85
32 33 29 31 31 22 24 21 23 27 29 29 29 35 39 38 36 32 33 33 35 25 20 24 28 29 29 23 17 17 20 30 43 39 42 53 67 73 75 80 82 88 85 85
30 33 32 30 31 22 21 30 33 28 23 24 18 21 29 33 37 40 37 34 35 34 30 23 23 26 25 27 23 15 16 23 29 44 45 46 46 61 74 76 81 85 89 89
29 31 34 29 25 26 27 24 27 21 20 20 22 21 22 27 30 35 38 36 35 31 34 30 22 25 26 25 29 26 19 16 21 28 34 37 55 56 56 70 78 82 86 88
33 36 35 27 28 29 27 27 22 21 21 20 29 24 25 28 29 29 30 32 34 30 29 34 33 29 27 27 25 26 28 25 22 22 28 31 27 38 57 58 70 78 82 87
36 37 33 26 26 25 22 25 24 25 26 23 24 26 28 28 27 25 25 27 28 29 33 33 34 36 33 31 31 29 28 30 29 29 25 24 30 27 38 55 60 71 79 82
Wind_Direction
316 316 315 311 301 292 289 286 283 274 266 263 255 253 248 249 248 246 243 243 240 243 237 237 235 234 234 231 233 239 235 228 230 237 237 238 241 244 242 239 233 239 241 242
324 325 322 311 301 296 291 286 283 278 270 260 252 245 247 245 246 246 245 246 246 244 239 239 238 236 234 234 229 236 235 230 228 232 239 236 238 236 241 237 231 233 237 241
331 331 323 309 300 295 291 288 283 278 270 263 264 258 245 243 247 244 243 241 245 244 242 241 241 237 234 234 235 232 234 233 227 228 233 239 233 232 235 234 231 228 235 239
335 331 320 309 300 294 293 288 281 281 283 275 271 268 262 253 245 243 240 237 240 240 240 241 236 240 237 235 234 231 232 230 229 226 229 236 235 236 240 242 238 231 232 239
339 333 323 309 304 300 295 285 290 284 282 288 300 272 249 240 234 239 234 234 238 241 239 236 236 231 230 229 231 228 231 232 227 224 224 231 236 234 236 235 235 233 231 236
341 331 321 315 309 298 282 287 298 283 315 288 321 292 224 233 236 238 234 227 230 236 241 240 240 235 234 229 227 231 233 232 232 227 222 225 231 235 234 232 233 235 232 232
348 324 323 320 308 293 281 288 291 266 291 281 276 274 262 260 241 241 243 238 232 228 229 238 237 237 234 233 233 228 231 235 232 231 227 223 225 232 235 234 231 232 232 231
351 335 321 322 315 319 271 272 278 288 275 263 250 289 260 253 215 236 253 246 242 236 229 228 234 235 237 236 229 234 227 230 236 228 229 224 225 227 232 233 229 230 229 232
349 347 328 320 320 302 270 268 270 277 270 270 259 254 259 283 270 201 293 251 251 236 228 232 240 237 236 235 233 224 229 229 233 230 227 225 226 230 231 230 230 227 228 232
351 351 334 323 301 292 283 273 262 272 268 261 257 248 270 281 279 248 256 291 275 239 235 228 232 240 237 234 233 224 225 229 232 234 226 223 217 226 233 232 230 230 227 230
349 348 348 333 302 280 269 269 268 258 254 261 251 244 262 270 282 279 287 270 267 261 258 254 246 243 245 238 234 233 219 226 228 233 232 230 222 218 224 228 231 228 228 228
349 347 351 341 324 298 268 262 264 262 257 252 255 248 255 269 287 278 283 289 304 305 265 253 237 232 240 241 234 229 226 220 225 230 235 235 219 223 221 222 225 228 227 227
350 348 347 344 336 322 285 264 261 258 256 252 254 266 267 272 282 279 280 282 290 300 273 260 250 242 242 238 237 227 222 216 224 226 234 236 231 224 219 222 222 226 227 229
346 348 345 343 343 335 301 266 259 266 263 263 262 270 268 279 277 274 274 278 278 284 280 262 255 252 249 236 239 227 217 215 219 223 230 237 238 235 223 215 217 226 229 228
341 346 348 340 343 336 332 292 260 257 264 269 272 273 279 275 275 288 254 259 265 277 285 272 278 277 256 247 232 228 222 212 215 222 227 231 234 237 234 217 215 220 224 224
339 342 348 339 344 339 339 358 29 24 346 318 308 296 264 260 275 281 260 269 267 274 282 280 278 277 238 238 237 233 228 221 211 218 224 227 232 233 237 227 224 225 230 229
336 340 346 339 341 353 345 74 30 3 344 343 347 348 259 246 298 286 280 265 279 291 293 284 265 268 262 246 247 231 228 225 218 218 222 223 228 231 232 233 221 225 230 234
334 336 337 341 345 355 7 329 325 329 337 241 357 312 261 272 277 287 278 266 288 286 291 298 290 275 261 279 251 240 230 225 224 221 223 222 225 228 230 228 231 225 227 230
331 330 331 335 345 338 309 324 324 302 305 297 280 284 287 292 282 279 282 281 275 288 288 300 292 282 270 280 273 253 230 226 226 227 224 224 225 227 229 226 228 231 229 229
326 332 334 330 331 330 315 278 289 295 289 278 287 292 289 279 285 286 284 290 293 283 285 291 296 291 285 280 283 263 229 234 230 228 227 224 225 228 228 227 227 231 232 230
323 325 329 325 320 322 295 301 294 294 297 256 266 290 293 280 280 287 284 285 283 271 265 280 285 293 294 292 281 265 236 227 235 234 230 228 227 226 226 226 227 228 231 234
320 318 322 320 316 318 296 287 278 280 288 293 288 280 283 287 281 286 290 286 280 282 286 273 278 286 290 291 295 280 259 236 230 233 236 236 234 230 227 226 225 229 229 232
317 310 311 321 318 310 282 269 280 294 297 295 296 285 302 290 281 279 285 290 291 289 284 280 273 283 292 295 298 301 272 264 230 230 241 219 233 236 232 227 226 228 231 233
308 300 309 315 321 311 296 284 284 288 288 273 306 304 304 302 292 279 277 280 282 289 285 280 280 279 282 293 299 300 297 275 264 243 246 243 239 233 239 234 229 227 229 232
297 298 308 319 314 308 296 286 270 252 270 275 292 297 296 312 310 290 282 279 277 274 277 281 280 281 282 281 286 295 295 292 284 277 269 262 249 237 236 237 235 231 229 231
287 300 310 309 302 301 304 290 282 271 275 285 291 291 295 305 313 312 297 285 281 279 276 276 280 278 278 281 283 282 283 288 286 284 283 273 264 251 238 228 235 234 233 232